Temperature
12 12 11 11 11 10 10 10 10 10 10 10 10 9 9 9 8 8 7 7 6 6 6 5 5 4 4 3 3 2 1 1 -0 1 1 1 0 0 0 -0 -0 -1 -1
12 12 11 11 11 10 10 10 10 10 10 10 9 9 9 8 8 8 7 7 6 6 5 5 4 4 3 3 2 2 1 1 -0 -0 0 0 -0 -1 -1 -1 -1 -2 -2
12 11 11 11 11 10 10 10 10 10 10 9 9 9 9 8 8 7 7 6 6 5 5 4 4 3 3 3 2 1 1 0 -0 -1 -1 -1 -1 -1 -2 -2 -2 -3 -3
11 11 11 11 10 10 10 10 10 10 9 9 9 9 8 8 7 7 6 6 5 5 5 4 4 3 3 2 2 1 1 0 -0 -1 -1 -1 -2 -2 -3 -3 -3 -3 -3
11 11 11 10 10 10 10 9 9 9 9 9 8 8 8 7 7 6 6 5 5 5 4 4 3 3 2 2 1 1 0 -0 -1 -1 -2 -2 -2 -3 -3 -3 -4 -4 -4
11 11 10 10 10 9 9 9 9 9 9 8 8 8 7 7 7 6 5 5 4 4 4 3 3 2 2 1 1 0 -0 -1 -1 -2 -2 -3 -3 -3 -4 -4 -4 -5 -5
10 10 10 9 9 9 9 9 9 8 8 8 7 7 7 6 6 5 5 4 4 3 3 3 2 2 1 1 0 -0 -1 -1 -2 -2 -3 -3 -3 -3 -4 -4 -5 -5 -5
10 10 9 9 9 9 8 8 8 8 7 7 7 6 6 6 5 5 4 3 3 3 2 2 1 1 1 0 -1 -1 -1 -1 -2 -2 -3 -3 -4 -4 -4 -5 -5 -5 -5
9 9 9 8 8 8 8 8 7 7 7 6 6 6 5 5 4 4 3 2 2 2 2 1 1 0 -0 -1 -1 -2 -2 -2 -2 -3 -3 -4 -4 -4 -5 -5 -5 -6 -6
9 9 8 8 8 7 7 7 7 6 6 6 5 5 4 4 4 3 2 2 1 1 1 1 0 -0 -1 -1 -2 -2 -3 -3 -3 -3 -4 -4 -4 -4 -5 -5 -6 -6 -6
9 8 8 7 7 7 6 6 6 5 5 5 4 4 4 3 3 2 2 1 1 0 0 -0 -1 -1 -2 -2 -3 -3 -3 -4 -4 -4 -4 -5 -5 -5 -5 -5 -6 -6 -6
8 8 7 7 6 6 6 5 5 5 4 4 4 3 3 2 2 1 1 0 -0 -1 -1 -1 -2 -2 -3 -3 -4 -4 -4 -4 -5 -5 -5 -5 -5 -5 -6 -6 -6 -6 -7
8 7 7 6 6 5 5 5 4 4 3 3 3 2 2 2 1 1 -0 -1 -1 -1 -2 -2 -3 -3 -3 -4 -4 -4 -5 -5 -5 -6 -6 -6 -6 -6 -6 -6 -7 -7 -7
7 7 6 6 5 5 4 4 3 3 3 2 2 2 1 1 1 -0 -1 -1 -2 -2 -2 -3 -3 -4 -4 -4 -5 -5 -5 -5 -6 -6 -6 -6 -6 -7 -7 -7 -7 -7 -7
7 6 6 5 5 4 4 3 3 2 2 1 1 1 0 0 -0 -1 -2 -2 -2 -3 -3 -4 -4 -4 -5 -5 -5 -5 -6 -6 -6 -6 -7 -7 -7 -7 -7 -7 -8 -8 -8
6 5 5 4 4 3 3 2 2 2 1 1 0 -0 -0 -1 -1 -2 -2 -3 -3 -4 -4 -5 -5 -5 -5 -6 -6 -6 -6 -7 -7 -7 -7 -7 -7 -8 -8 -8 -8 -8 -9
5 5 4 4 3 3 2 2 1 1 1 0 -0 -1 -1 -2 -2 -3 -3 -3 -4 -4 -5 -5 -5 -6 -6 -6 -7 -7 -7 -7 -7 -8 -8 -8 -8 -8 -8 -8 -8 -9 -9
4 4 3 3 2 2 1 1 0 -0 -0 -1 -1 -1 -2 -3 -3 -3 -4 -4 -5 -5 -5 -6 -6 -6 -7 -7 -7 -7 -8 -8 -8 -8 -8 -8 -8 -9 -9 -9 -9 -9 -9
3 3 2 2 1 1 0 -0 -1 -1 -1 -2 -2 -2 -3 -4 -4 -4 -5 -5 -5 -6 -6 -6 -7 -7 -7 -8 -8 -8 -8 -8 -9 -9 -9 -9 -9 -9 -9 -9 -9 -9 -9
2 2 1 1 0 -0 -1 -1 -2 -2 -2 -3 -3 -3 -4 -5 -5 -5 -6 -6 -6 -7 -7 -7 -7 -8 -8 -8 -9 -9 -9 -9 -9 -9 -9 -9 -9 -9 -9 -10 -10 -10 -10
1 1 0 -0 -1 -1 -2 -2 -3 -3 -4 -4 -4 -5 -5 -6 -6 -6 -6 -7 -7 -7 -8 -8 -8 -8 -9 -9 -9 -9 -9 -10 -10 -10 -10 -10 -10 -10 -10 -10 -10 -10 -10
0 -0 -1 -1 -2 -2 -3 -3 -4 -4 -5 -5 -5 -5 -6 -6 -6 -7 -7 -7 -7 -8 -8 -9 -9 -9 -9 -9 -10 -10 -10 -10 -10 -10 -10 -10 -10 -10 -10 -10 -10 -10 -10
-1 -1 -2 -2 -3 -3 -4 -4 -5 -5 -6 -6 -6 -6 -6 -7 -7 -7 -8 -8 -8 -8 -9 -9 -9 -10 -10 -10 -10 -10 -10 -10 -10 -10 -10 -11 -11 -11 -11 -11 -10 -10 -10
-2 -2 -3 -3 -4 -4 -5 -5 -6 -6 -6 -7 -7 -7 -7 -7 -8 -8 -8 -9 -9 -9 -9 -10 -10 -10 -10 -10 -10 -11 -11 -11 -11 -11 -11 -11 -11 -11 -11 -11 -11 -11 -11
-3 -3 -4 -4 -5 -5 -6 -6 -6 -7 -7 -7 -7 -8 -8 -8 -8 -9 -9 -9 -9 -10 -10 -10 -10 -11 -11 -11 -11 -11 -11 -11 -11 -11 -11 -11 -11 -11 -11 -11 -11 -11 -11
-4 -4 -5 -5 -6 -6 -6 -7 -7 -7 -7 -8 -8 -8 -9 -9 -9 -9 -9 -10 -10 -10 -11 -11 -11 -11 -11 -11 -11 -11 -11 -11 -11 -11 -11 -11 -11 -11 -11 -11 -11 -11 -11
Wind_Speed
11 10 9 9 9 9 9 10 9 9 10 11 10 9 8 8 7 6 6 6 6 6 5 6 7 6 5 5 5 5 6 6 10 9 6 6 7 8 11 13 15 15 16
10 10 9 9 9 10 9 9 10 10 10 10 9 9 9 8 8 8 7 7 7 7 7 6 7 6 6 6 5 7 7 7 8 12 8 6 8 8 7 8 12 14 14
10 10 10 10 10 10 10 9 10 10 9 9 9 9 9 8 8 8 7 7 7 7 7 7 7 7 8 7 7 7 7 8 7 8 9 6 6 6 8 9 9 8 14
10 10 10 10 10 10 9 9 9 10 10 9 9 8 8 8 8 7 7 7 6 7 7 7 8 8 9 9 8 8 7 7 7 8 9 8 7 7 7 8 8 6 8
10 10 9 9 8 8 9 9 9 9 9 8 8 8 7 7 8 8 8 7 7 7 7 8 9 11 14 12 10 8 7 7 7 8 10 9 8 7 7 7 10 8 8
9 9 8 8 8 8 8 8 8 8 8 8 8 8 8 8 11 13 10 7 7 8 8 8 9 11 14 18 20 18 14 10 8 9 10 11 11 9 8 9 9 9 8
8 8 8 8 8 8 8 8 8 8 7 8 8 8 8 9 12 13 13 8 7 8 8 8 9 9 13 9 14 18 17 20 19 14 12 13 12 10 9 10 9 11 12
8 8 8 8 8 7 8 8 7 6 7 7 8 8 7 8 12 13 13 9 7 8 9 9 9 9 9 10 9 9 10 11 14 12 11 12 11 10 10 11 11 11 10
7 7 7 8 8 8 8 7 6 6 6 6 7 7 7 8 11 12 11 6 7 9 9 9 10 10 16 17 11 10 10 10 15 20 21 21 23 24 18 9 8 9 12
7 7 7 7 7 7 7 6 5 5 5 5 6 7 7 7 10 12 12 6 7 8 8 9 13 14 17 18 11 9 11 11 10 11 13 16 14 16 21 11 7 9 10
6 6 6 6 6 6 5 4 4 4 4 5 5 5 6 7 8 11 12 7 7 7 7 7 8 16 19 19 17 11 16 16 10 9 9 9 8 7 8 8 7 7 9
6 6 5 5 5 4 5 4 4 4 4 4 4 5 4 5 7 10 13 13 11 8 8 7 8 16 18 20 16 17 22 19 8 7 8 8 7 7 6 6 7 8 9
6 5 5 4 4 4 4 4 4 4 4 4 4 4 4 4 5 11 14 15 15 10 8 14 16 19 19 15 18 21 18 9 6 8 9 8 6 6 5 4 5 6 7
5 4 4 4 3 3 3 3 3 4 4 4 4 5 5 4 4 5 6 8 11 11 9 13 18 19 16 15 16 13 8 7 7 8 8 7 5 4 5 4 4 4 5
5 4 4 3 3 2 2 3 4 4 5 5 5 5 5 6 8 11 8 6 6 8 8 7 6 7 7 7 7 7 6 6 7 6 7 7 6 5 5 4 4 4 4
4 3 3 2 2 2 2 2 4 5 7 9 9 9 8 11 14 14 15 16 17 17 12 8 8 8 8 8 7 7 6 6 6 6 6 6 6 6 5 4 4 4 5
4 3 2 2 2 2 2 3 4 5 7 9 11 12 13 14 15 15 16 17 17 16 10 8 8 8 8 7 7 7 6 6 5 6 6 6 5 5 5 5 4 4 5
3 2 2 2 2 2 3 3 3 4 5 5 8 12 14 14 15 15 16 14 9 9 7 8 8 8 7 7 6 6 6 5 5 5 5 5 5 5 5 4 4 4 5
2 1 1 1 2 2 3 3 4 5 6 6 5 7 12 13 14 15 14 7 7 8 7 8 7 7 7 6 6 6 5 5 5 5 5 5 5 5 5 4 4 7 6
1 2 2 1 2 2 3 4 4 5 6 6 7 6 6 6 6 7 6 6 7 8 7 7 7 7 6 6 6 5 5 5 5 5 5 5 5 4 4 5 4 4 4
1 1 3 2 3 3 4 4 5 6 6 7 7 9 13 8 7 7 7 7 7 7 7 7 7 7 6 5 5 6 6 6 5 5 5 5 4 4 4 4 4 4 4
1 1 2 3 3 4 4 5 5 6 7 9 8 9 15 9 7 7 7 8 7 7 7 7 7 6 6 6 6 6 6 6 5 5 5 5 5 4 4 4 4 4 4
1 2 3 3 4 7 7 5 6 6 7 8 8 8 8 7 8 8 8 8 7 7 6 6 7 7 6 6 6 6 7 6 5 5 5 5 5 4 4 4 5 4 4
2 3 4 4 5 5 6 6 6 7 8 8 8 8 8 8 8 9 8 8 7 7 6 6 7 8 9 7 6 7 7 7 7 6 7 6 6 5 5 4 5 5 4
2 3 4 5 5 6 6 7 7 8 8 9 9 9 9 9 9 9 8 8 8 8 8 8 7 7 9 10 9 8 12 15 13 9 7 7 7 6 6 5 5 5 5
3 4 5 5 5 6 7 7 8 8 8 9 9 9 9 9 9 9 8 8 8 8 8 7 8 9 9 9 10 13 16 17 17 16 9 6 7 7 6 6 7 6 6
Wind_Direction
183 183 179 177 170 165 165 166 164 161 161 167 171 172 174 178 180 185 195 198 205 215 218 221 231 231 232 233 231 232 233 232 261 273 266 278 285 289 298 298 298 296 295
181 179 179 175 169 168 169 168 164 165 167 170 171 175 180 183 186 192 201 203 207 216 223 228 237 238 238 236 235 237 239 236 251 273 278 275 275 281 285 290 296 294 293
176 178 178 177 175 175 174 170 168 168 170 171 174 181 185 187 191 197 201 206 212 218 222 229 237 238 245 244 242 243 246 253 249 265 277 274 275 279 287 287 283 285 291
174 177 181 181 179 176 171 169 170 169 172 176 180 183 186 189 193 198 202 210 219 227 229 232 236 236 242 244 248 248 249 255 259 266 276 279 276 276 278 285 288 275 281
175 179 181 175 171 170 169 168 167 170 176 176 179 185 189 193 199 200 203 210 221 233 238 238 240 244 248 251 254 247 244 251 259 266 274 280 278 280 277 278 285 284 274
174 178 170 167 167 168 168 166 169 175 176 178 186 190 196 205 208 209 207 212 220 229 241 245 249 253 258 264 266 267 263 260 261 264 272 274 277 273 276 278 283 289 288
171 170 167 167 169 171 169 171 178 181 180 188 195 196 205 212 213 218 220 219 224 232 240 247 258 258 264 257 266 271 271 270 269 268 269 270 274 273 274 278 275 277 280
164 165 166 166 168 168 170 179 184 184 188 195 201 204 208 216 218 224 228 227 231 238 241 245 252 256 256 261 254 255 253 258 263 266 263 265 266 266 261 269 273 277 277
164 166 166 165 167 172 181 186 187 187 196 199 199 204 212 220 221 227 229 226 235 243 246 249 254 256 267 272 269 263 265 263 270 272 273 276 279 284 285 283 279 283 287
166 164 161 163 169 178 184 186 187 190 199 199 208 211 214 221 225 228 230 226 239 249 251 251 259 265 272 276 270 265 271 271 268 273 275 278 279 281 285 277 270 277 284
147 148 155 161 168 173 176 179 181 190 196 205 217 223 222 225 231 233 237 233 238 250 255 255 257 272 275 277 277 270 272 278 272 268 270 269 268 267 266 260 251 254 270
133 143 152 156 161 163 168 180 183 186 199 214 224 235 234 232 236 245 249 252 256 255 259 259 263 276 279 281 281 279 282 287 281 276 275 274 271 266 260 257 256 253 254
131 141 145 146 151 158 168 181 187 190 202 219 225 237 247 242 246 254 257 261 264 264 265 271 277 281 284 283 282 284 286 281 273 275 275 273 265 258 255 262 265 262 263
135 141 141 144 153 163 172 180 190 202 212 223 231 241 250 250 247 249 251 262 267 271 274 276 280 282 280 277 280 283 273 264 267 268 272 271 268 260 257 258 265 271 275
136 137 138 147 161 181 196 205 209 216 217 228 233 232 241 254 255 260 264 259 255 260 276 272 268 271 268 266 266 263 257 261 270 262 268 271 269 268 266 259 257 264 266
135 141 148 158 177 193 216 266 256 256 258 254 256 258 260 265 274 274 274 277 280 282 284 275 273 271 272 273 271 268 259 256 257 261 266 268 268 265 263 264 260 258 266
137 147 151 167 192 211 222 235 268 286 277 272 271 272 273 277 278 280 282 285 285 286 281 273 273 274 274 272 271 270 266 262 258 260 262 261 263 262 262 266 263 260 262
130 154 171 190 205 221 233 242 249 265 279 278 275 276 279 281 283 285 287 291 284 278 264 268 270 270 269 268 268 266 264 264 260 259 258 256 252 255 257 259 258 257 262
138 169 185 206 225 238 246 252 257 262 269 278 282 282 282 285 286 284 287 276 270 268 263 264 266 267 266 266 265 261 257 258 256 254 257 255 252 248 250 251 256 269 271
157 232 254 240 246 252 254 258 263 267 272 275 276 277 282 284 276 277 269 261 264 266 266 267 267 266 266 265 265 261 259 257 253 250 250 249 246 242 244 247 253 258 258
187 244 272 273 253 252 255 259 262 265 269 273 273 279 287 284 274 273 270 265 264 266 267 268 268 267 261 259 256 255 255 255 250 247 247 245 238 235 237 243 250 251 254
214 244 251 253 259 262 268 264 265 267 270 275 280 284 288 285 276 274 272 269 264 262 263 266 266 262 256 252 251 253 254 255 251 245 244 240 234 229 229 238 251 252 251
235 256 266 267 268 276 280 271 269 270 273 275 279 281 280 274 272 272 272 270 266 266 264 262 266 267 260 250 244 245 249 248 241 237 242 240 231 225 223 231 241 252 250
247 258 265 270 272 268 269 271 270 273 274 276 276 277 276 274 274 275 274 274 272 269 265 263 264 264 263 259 252 246 244 246 243 235 228 231 227 224 222 226 233 242 246
265 268 270 270 270 270 272 273 273 274 275 278 278 278 278 277 277 277 274 272 272 271 269 266 265 262 262 261 257 250 256 259 257 249 228 221 220 217 218 221 226 235 234
272 271 272 271 269 269 271 274 275 277 277 279 279 278 278 279 278 278 277 274 273 272 271 268 264 264 263 265 264 265 269 268 263 260 244 217 210 213 213 220 222 228 229
Height
1466 1470 1473 1477 1481 1484 1487 1489 1492 1495 1498 1500 1502 1504 1506 1507 1508 1508 1508 1508 1508 1508 1507 1506 1505 1504 1502 1501 1499 1497 1495 1492 1487 1481 1481 1480 1478 1475 1473 1470 1467 1463 1460
1462 1465 1469 1473 1476 1479 1482 1485 1488 1490 1493 1495 1497 1499 1500 1501 1502 1503 1503 1503 1503 1502 1501 1500 1499 1498 1496 1495 1493 1491 1489 1486 1482 1476 1474 1473 1471 1469 1466 1463 1460 1457 1453
1458 1461 1464 1467 1470 1473 1476 1479 1482 1485 1488 1490 1492 1494 1495 1496 1497 1497 1498 1497 1497 1496 1495 1494 1493 1492 1490 1488 1486 1484 1482 1480 1477 1472 1467 1466 1464 1462 1458 1455 1453 1450 1447
1453 1456 1459 1462 1465 1468 1471 1474 1477 1480 1482 1484 1486 1488 1490 1491 1491 1492 1492 1491 1491 1490 1489 1488 1487 1485 1483 1482 1479 1477 1475 1473 1470 1466 1462 1459 1457 1455 1452 1448 1444 1442 1439
1449 1451 1454 1458 1461 1464 1466 1469 1472 1474 1477 1479 1481 1482 1484 1485 1485 1485 1485 1485 1484 1483 1482 1481 1480 1479 1477 1475 1473 1470 1469 1466 1463 1459 1455 1452 1449 1447 1445 1442 1438 1434 1431
1444 1447 1450 1453 1456 1459 1461 1464 1467 1469 1471 1473 1475 1476 1477 1478 1479 1479 1479 1478 1477 1476 1475 1474 1473 1471 1470 1468 1466 1464 1462 1459 1455 1452 1448 1445 1442 1441 1438 1435 1432 1427 1422
1440 1443 1446 1448 1451 1453 1456 1459 1461 1463 1465 1467 1469 1470 1471 1472 1473 1473 1472 1471 1470 1469 1468 1467 1465 1464 1462 1460 1458 1456 1454 1452 1450 1447 1442 1438 1436 1434 1432 1428 1425 1421 1417
1436 1439 1441 1444 1446 1449 1451 1453 1456 1458 1459 1461 1462 1464 1465 1466 1466 1466 1465 1464 1463 1462 1461 1459 1457 1455 1454 1452 1449 1446 1444 1443 1441 1438 1435 1431 1429 1427 1425 1422 1418 1414 1410
1432 1434 1437 1439 1442 1444 1446 1448 1450 1452 1454 1455 1456 1457 1458 1459 1459 1459 1459 1457 1455 1454 1453 1452 1450 1448 1446 1445 1442 1438 1435 1433 1432 1430 1427 1424 1422 1420 1418 1415 1411 1407 1402
1428 1431 1433 1436 1438 1440 1442 1444 1445 1447 1448 1449 1450 1451 1452 1452 1453 1452 1452 1450 1447 1446 1444 1443 1442 1440 1438 1436 1434 1430 1426 1424 1423 1420 1418 1416 1413 1411 1410 1408 1405 1401 1397
1426 1428 1430 1432 1434 1436 1438 1439 1441 1442 1443 1444 1444 1445 1445 1446 1446 1445 1444 1443 1440 1438 1436 1434 1433 1432 1430 1428 1426 1423 1419 1417 1414 1411 1408 1406 1404 1402 1401 1399 1397 1395 1392
1423 1425 1427 1429 1430 1432 1433 1435 1436 1437 1437 1438 1438 1438 1438 1439 1439 1438 1437 1436 1434 1431 1428 1426 1424 1423 1421 1419 1417 1414 1412 1410 1406 1403 1400 1398 1396 1394 1392 1391 1389 1388 1386
1420 1422 1424 1425 1427 1428 1429 1430 1431 1431 1431 1432 1432 1431 1431 1431 1431 1430 1429 1428 1426 1424 1420 1418 1416 1414 1412 1409 1408 1406 1404 1401 1398 1395 1392 1390 1389 1387 1385 1384 1382 1380 1378
1417 1419 1420 1421 1423 1424 1425 1425 1426 1426 1426 1426 1426 1425 1424 1424 1423 1422 1421 1420 1418 1415 1413 1410 1408 1405 1403 1401 1399 1397 1395 1393 1391 1388 1385 1383 1382 1380 1379 1377 1375 1374 1372
1415 1416 1417 1418 1419 1420 1420 1421 1421 1421 1421 1421 1420 1419 1418 1416 1416 1415 1414 1411 1409 1407 1404 1401 1398 1396 1393 1392 1390 1388 1387 1385 1383 1381 1379 1377 1375 1374 1372 1371 1370 1368 1367
1412 1413 1414 1414 1415 1415 1415 1416 1416 1416 1416 1415 1414 1414 1411 1410 1409 1407 1406 1404 1401 1400 1397 1392 1390 1388 1386 1384 1382 1380 1379 1378 1376 1374 1372 1371 1369 1368 1366 1365 1365 1364 1362
1409 1409 1410 1410 1410 1410 1410 1410 1409 1409 1409 1409 1408 1407 1405 1403 1401 1399 1398 1395 1393 1391 1388 1384 1382 1380 1378 1377 1375 1373 1372 1370 1369 1368 1366 1365 1364 1362 1361 1360 1359 1359 1358
1405 1406 1406 1406 1406 1406 1405 1405 1404 1402 1401 1400 1400 1399 1397 1395 1393 1392 1390 1387 1384 1382 1380 1377 1375 1373 1371 1370 1368 1366 1365 1363 1362 1361 1360 1359 1358 1357 1356 1355 1355 1354 1354
1401 1402 1402 1402 1401 1401 1400 1399 1398 1396 1394 1393 1391 1390 1390 1387 1385 1384 1382 1379 1376 1374 1372 1370 1368 1366 1364 1363 1361 1360 1358 1357 1356 1355 1354 1353 1352 1352 1351 1351 1350 1350 1350
1398 1398 1397 1397 1396 1395 1394 1393 1391 1390 1388 1386 1384 1382 1381 1379 1376 1374 1373 1371 1369 1366 1364 1362 1360 1359 1357 1355 1354 1353 1352 1350 1349 1349 1348 1347 1347 1347 1347 1346 1346 1346 1346
1393 1393 1392 1392 1391 1389 1388 1387 1385 1383 1381 1379 1377 1376 1374 1372 1369 1367 1365 1363 1361 1359 1357 1355 1353 1351 1350 1348 1347 1346 1345 1344 1343 1343 1342 1342 1342 1342 1342 1342 1342 1342 1342
1388 1387 1387 1386 1385 1383 1382 1380 1379 1377 1375 1372 1369 1368 1367 1364 1362 1359 1357 1355 1353 1351 1349 1347 1345 1343 1342 1341 1340 1339 1338 1337 1337 1337 1337 1337 1337 1337 1337 1338 1338 1338 1338
1383 1382 1381 1380 1379 1377 1376 1374 1372 1370 1368 1365 1363 1360 1358 1356 1354 1351 1349 1347 1345 1343 1341 1339 1337 1336 1335 1334 1333 1332 1332 1331 1331 1331 1331 1331 1332 1332 1332 1333 1334 1334 1334
1378 1377 1375 1374 1372 1371 1369 1367 1365 1363 1361 1358 1355 1353 1351 1348 1345 1343 1341 1339 1337 1335 1333 1331 1330 1328 1327 1326 1326 1325 1325 1325 1325 1325 1325 1325 1326 1327 1327 1328 1329 1330 1331
1373 1371 1370 1368 1366 1364 1362 1360 1358 1355 1353 1350 1348 1345 1343 1340 1337 1335 1332 1330 1328 1326 1324 1323 1322 1320 1319 1319 1318 1318 1318 1318 1318 1318 1319 1319 1320 1321 1322 1323 1324 1326 1327
1367 1366 1364 1362 1360 1358 1355 1353 1350 1348 1345 1342 1340 1337 1334 1331 1329 1326 1324 1322 1320 1318 1316 1315 1313 1312 1312 1311 1311 1311 1311 1311 1311 1312 1313 1313 1314 1315 1317 1318 1320 1321 1322